Lid_Strength_Index
-0 2 2 4 11 12 16 13 10 10 9 8 7 7 8 8 9 11 2 1 0 0 -0 -0 -2 -2 -2 -2 -1 -2 -1 -1 -1 -2 -2 -2 -2 -2 -2 -2 -2 -2 -2 -2 -2 -2 -2 -2 -2
0 0 3 7 14 17 15 11 11 9 7 8 6 7 8 9 5 5 4 1 0 -0 -0 -0 -2 -1 -1 -1 -2 -1 -1 -1 -2 -2 -2 -2 -2 -2 -2 -2 -2 -2 -1 -2 -2 -2 -2 -2 -2
0 1 7 11 14 16 15 10 9 7 7 7 8 6 7 8 4 4 3 1 0 0 -0 -0 -1 -2 -2 -2 -2 -2 -2 -2 -2 -2 -2 -2 -2 -2 -2 -2 -2 -2 -2 -2 -2 -2 -2 -2 -2
2 4 6 13 15 12 11 9 7 7 6 5 7 8 6 3 4 3 2 1 1 0 -0 -1 -2 -2 -2 -2 -2 -2 -2 -2 -2 -2 -2 -2 -2 -2 -2 -2 -2 -2 -2 -2 -2 -2 -2 -2 -2
4 6 12 14 13 11 9 7 6 8 7 7 6 8 8 4 2 2 2 0 1 1 -0 -0 -2 -2 -2 -2 -2 -2 -2 -2 -2 -2 -2 -2 -2 -2 -2 -2 -2 -2 -2 -2 -2 -2 -2 -2 -2
8 7 14 16 13 10 8 7 7 7 7 7 7 7 7 4 2 2 1 1 1 0 -0 -0 -1 -2 -2 -2 -2 -2 -2 -2 -2 -2 -2 -2 -2 -2 -2 -2 -2 -2 -2 -2 -2 -2 -2 -1 -2
9 11 14 14 13 11 9 6 8 8 8 8 6 8 6 5 2 1 1 1 0 0 0 0 -0 -1 -2 -2 -2 -2 -2 -1 -1 -2 -2 -2 -2 -2 -2 -2 -2 -2 -2 -2 -2 -2 -1 -1 -2
7 9 13 13 13 12 7 7 6 7 8 4 4 8 8 4 2 1 1 1 1 0 1 1 0 0 0 -0 -2 -1 -1 -2 -2 -2 -2 -2 -2 -2 -2 -2 -2 -2 -1 -1 -0 -1 -1 -2 -1
5 12 14 13 12 10 7 7 6 5 6 6 5 5 4 2 2 2 2 2 1 1 1 1 1 0 0 0 -1 -1 -1 -2 -2 -1 -2 -1 1 1 1 -1 -1 -0 -0 -0 -0 -0 0 -1 -1
8 12 12 8 8 9 7 8 7 7 8 7 6 4 3 2 3 4 4 4 3 2 1 1 1 1 0 -0 0 1 -0 0 1 1 2 2 3 3 2 1 0 1 1 -0 1 0 1 5 8
8 11 8 7 6 6 6 7 5 8 9 7 7 6 4 4 4 4 3 3 3 2 1 1 1 0 0 0 0 1 1 1 0 1 2 3 3 4 5 6 7 8 5 8 7 8 9 9 9
11 8 8 6 6 6 7 5 7 7 7 5 5 4 4 5 4 4 4 3 3 2 1 1 0 0 0 0 0 1 1 1 1 2 3 4 6 7 7 8 8 9 9 10 10 10 10 10 10
10 9 8 7 7 7 7 7 7 7 5 4 4 4 5 4 4 3 3 3 3 2 1 1 1 0 1 0 0 0 0 2 3 3 4 5 7 8 8 9 10 10 10 10 10 10 10 11 11
9 8 8 8 8 7 7 7 6 6 5 5 5 5 5 5 4 4 3 3 3 2 2 1 1 0 0 0 0 0 4 5 5 5 5 6 8 9 9 10 10 10 10 10 10 10 10 9 10
7 9 9 8 8 8 7 10 9 5 5 6 6 5 5 4 4 4 3 3 3 2 2 2 1 0 1 1 2 5 6 6 7 8 9 8 9 9 10 10 11 11 11 11 10 10 9 9 9
9 10 13 9 9 8 9 13 8 6 6 7 6 6 5 5 4 3 2 2 3 2 2 1 1 1 1 2 5 6 7 8 8 9 9 8 9 9 10 10 10 9 10 10 10 9 9 9 10
11 14 13 11 8 9 10 12 9 7 7 7 7 6 6 5 4 4 2 2 2 2 2 1 1 1 3 4 6 6 6 8 7 9 9 9 9 8 9 9 9 9 9 9 9 9 9 10 10
14 14 12 12 9 9 10 11 9 8 8 8 7 6 6 6 5 3 3 2 2 2 1 1 2 3 3 4 5 4 4 4 7 8 9 9 8 8 8 9 8 8 8 9 9 9 9 9 9
10 12 13 10 8 9 10 11 10 9 9 9 8 7 6 5 4 3 3 3 2 2 2 2 3 4 5 5 5 6 6 5 6 8 9 8 8 8 9 8 8 7 8 8 8 8 9 9 8
11 12 13 10 9 9 10 11 10 10 9 9 9 8 6 6 5 4 3 3 2 2 2 2 2 4 4 5 4 5 4 4 7 8 9 8 8 7 7 7 7 7 7 8 8 8 8 8 8
12 13 13 13 10 10 11 12 11 10 10 9 8 7 6 6 6 5 4 4 3 3 2 2 4 4 4 4 4 4 6 6 6 8 8 8 8 6 6 7 7 7 8 7 8 8 8 8 8
14 9 10 12 13 16 12 17 13 11 11 10 8 7 7 6 5 5 4 4 3 3 2 2 3 4 4 3 4 4 5 6 6 7 8 8 7 7 7 7 7 7 7 8 7 6 7 7 8
12 9 11 11 13 14 14 16 14 11 11 10 8 7 6 6 6 5 4 4 3 2 2 3 3 3 4 4 4 4 5 6 7 6 6 7 8 8 7 7 7 8 7 7 7 7 7 8 8
8 11 11 12 13 19 15 16 15 14 12 10 8 7 7 6 6 5 4 3 3 2 2 3 3 3 4 4 4 4 6 6 6 6 7 7 8 8 7 7 7 7 8 8 8 8 8 8 8
10 14 19 20 20 20 14 16 15 12 10 9 9 8 7 7 6 5 5 4 4 3 3 3 3 2 2 3 4 5 6 6 6 6 6 8 8 8 7 7 6 8 8 7 8 8 9 9 9
12 13 18 23 22 20 14 19 15 9 8 8 8 7 7 7 6 5 5 4 4 3 3 2 2 2 2 4 4 5 4 5 5 6 6 7 7 7 7 7 7 7 7 8 8 9 9 10 10
13 15 12 16 16 19 17 14 11 9 9 9 8 8 8 7 6 6 5 4 4 3 3 2 3 3 3 5 4 5 5 6 6 6 6 7 7 7 8 8 8 9 9 9 9 10 10 10 11
12 10 16 16 21 23 18 16 15 12 11 10 9 9 7 7 6 6 5 6 6 6 5 4 4 4 5 6 7 8 7 7 7 8 8 8 9 8 9 9 9 10 9 10 10 10 10 11 11
13 13 13 14 16 20 21 17 11 11 11 10 9 8 7 8 8 9 10 9 9 9 9 9 7 7 7 7 8 8 8 8 8 8 9 9 8 9 9 9 10 9 10 10 11 12 12 12 12
12 14 12 17 18 16 17 17 12 11 11 10 10 9 9 9 9 10 10 10 10 10 8 8 7 8 8 8 9 8 9 9 9 9 9 8 9 9 9 9 9 10 11 11 11 11 11 11 11